This is the latest recevied weather packets stored in our database for station/object M0TUM-1. If no packets are shown the sender has not sent any weather packets the latest 10 day(s).
| Time | Temp. | Humidity | Pressure | Rain* | Wind** | Luminosity | Snow |
|---|---|---|---|---|---|---|---|
| 1777760409 | 12.22° C | 88% | 1012 hPa | 0 mm | - | 0 W/m² | - |
| 1777760104 | 12.22° C | 88% | 1012.2 hPa | 0 mm | - | 0 W/m² | - |
| 1777759802 | 12.78° C | 88% | 1012.1 hPa | 0 mm | - | 0 W/m² | - |
| 1777759497 | 12.78° C | 88% | 1011.8 hPa | 0 mm | - | 0 W/m² | - |
| 1777759194 | 12.78° C | 88% | 1011.9 hPa | 0 mm | - | 0 W/m² | - |
| 1777758891 | 12.78° C | 87% | 1012.2 hPa | 0 mm | - | 0 W/m² | - |
| 1777758588 | 12.78° C | 87% | 1012 hPa | 0 mm | - | 0 W/m² | - |
| 1777758285 | 12.78° C | 87% | 1012.2 hPa | 0 mm | - | 0 W/m² | - |
| 1777757982 | 12.78° C | 87% | 1012.5 hPa | 0 mm | - | 0 W/m² | - |
| 1777757679 | 12.78° C | 87% | 1012.3 hPa | 0 mm | - | 0 W/m² | - |
| 1777757378 | 12.78° C | 86% | 1012.3 hPa | 1.78 mm | - | 0 W/m² | - |
| 1777757076 | 12.78° C | 86% | 1012.5 hPa | 1.78 mm | - | 0 W/m² | - |
| 1777756773 | 12.78° C | 86% | 1012.4 hPa | 1.27 mm | - | 0 W/m² | - |
| 1777756469 | 12.78° C | 85% | 1012.6 hPa | 3.05 mm | - | 0 W/m² | - |
| 1777756166 | 12.78° C | 84% | 1012.7 hPa | 1.78 mm | - | 0 W/m² | - |
| 1777755863 | 12.78° C | 84% | 1012.5 hPa | 1.27 mm | - | 0 W/m² | - |
| 1777755560 | 12.78° C | 84% | 1012.9 hPa | 3.05 mm | - | 0 W/m² | - |
| 1777755256 | 13.33° C | 83% | 1012.8 hPa | 3.56 mm | - | 0 W/m² | - |
| 1777754954 | 13.33° C | 82% | 1012.8 hPa | 1.78 mm | - | 0 W/m² | - |
| 1777754651 | 13.33° C | 81% | 1013 hPa | 1.27 mm | - | 0 W/m² | - |
| 1777754349 | 13.33° C | 81% | 1013.1 hPa | 1.27 mm | - | 0 W/m² | - |
| 1777754046 | 13.89° C | 80% | 1013.1 hPa | 0 mm | - | 0 W/m² | - |
| 1777753741 | 13.89° C | 79% | 1013.4 hPa | 1.78 mm | - | 0 W/m² | - |
| 1777753438 | 14.44° C | 78% | 1013.3 hPa | 1.78 mm | - | 0 W/m² | - |
| 1777753136 | 14.44° C | 77% | 1013.7 hPa | 0 mm | - | 0 W/m² | - |
* Rain latest hour (hover to see other rain measurements)
** Current wind speed in m/s (hover to see current wind gust speed)